User: anonymous   Login
Location: Albany
(35.0000°S, 118.0000°E)
Time: 01:55:11
(UTC-04:00)
Language:

Centaur D-1AR AC-48 - Orbit

View from above orbital plane
View from above orbital plane
View from above satellite
View from above satellite

Ground track
Ground track

The orbit data is extracted from the following two-line orbital elements,

1 10779U 78035B   17228.47184082 -.00000201  00000-0 -96536-3 0  9998
2 10779  21.8826  47.3260 7178432  52.4483 353.7474  2.22659084320021
Epoch (UTC): 16 August 2017 11:19:27
Eccentricity: 0.7178432
inclination: 21.8826°
perigee height: 611 km
apogee height: 36177 km
right ascension of ascending node: 47.3260°
argument of perigee: 52.4483°
revolutions per day: 2.22659084
mean anomaly at epoch: 353.7474°
orbit number at epoch: 32002

The dashed part of the orbit path shows where the satellite is in the earth's shadow,  

DLR